Location: Castellare
(42.4669°N, 9.4728°E)
Time: 14:55:42
(UTC+00:00)

Cosmos 1340 - Pass Details

Date: 17 February 2020
Orbit: 502 x 505 km, 81.2° (Epoch: 07 April)

Event Time Altitude Azimuth Distance (km) Brightness Sun altitude
Rises 05:45:10 0° 354° (N) 2,609 6.1 -6.5°
Reaches altitude 10° 05:47:21 10° 359° (N) 1,719 5.2 -6.1°
Maximum altitude 05:51:03 54° 78° (ENE) 618 3.6 -5.5°
Drops below altitude 10° 05:54:43 10° 156° (SSE) 1,704 5.9 -4.8°
Sets 05:56:51 0° 161° (SSE) 2,583 6.7 -4.4°
